This is the latest recevied weather packets stored in our database for station/object OE-11399. If no packets are shown the sender has not sent any weather packets the latest 10 day(s).
| Time | Temp. | Humidity | Pressure | Rain* | Wind** | Luminosity | Snow |
|---|---|---|---|---|---|---|---|
| 1788033927 | 14.44° C | 78% | 853.5 hPa | 0 mm | - | 0 W/m² | - |
| 1788033327 | 15° C | 76% | 853.4 hPa | 0 mm | - | 0 W/m² | - |
| 1788032500 | 14.44° C | 78% | 853.3 hPa | 0 mm | - | 0 W/m² | - |
| 1788032127 | 14.44° C | 78% | 853.3 hPa | 0 mm | - | 0 W/m² | - |
| 1788031527 | 15° C | 77% | 853.3 hPa | 0 mm | - | 0 W/m² | - |
| 1788030700 | 15° C | 76% | 853.3 hPa | 0 mm | - | 0 W/m² | - |
| 1788030327 | 15.56° C | 76% | 853.2 hPa | 0 mm | - | 0 W/m² | - |
| 1788029727 | 15.56° C | 74% | 853.1 hPa | 0 mm | - | 0 W/m² | - |
| 1788028900 | 16.11° C | 73% | 853.1 hPa | 0 mm | - | 0 W/m² | - |
| 1788028527 | 16.67° C | 73% | 853.1 hPa | 0 mm | - | 0 W/m² | - |
| 1788027927 | 16.67° C | 71% | 852.9 hPa | 0 mm | - | 7 W/m² | - |
| 1788027100 | 16.67° C | 69% | 852.9 hPa | 0 mm | - | 7 W/m² | - |
| 1788026727 | 17.22° C | 67% | 852.9 hPa | 0 mm | - | 7 W/m² | - |
| 1788026127 | 17.78° C | 62% | 853 hPa | 0 mm | - | 15 W/m² | - |
| 1788025300 | 18.33° C | 60% | 853 hPa | 0 mm | - | 22 W/m² | - |
| 1788024927 | 18.33° C | 58% | 853.1 hPa | 0 mm | - | 29 W/m² | - |
| 1788024327 | 18.89° C | 57% | 853.1 hPa | 0 mm | - | 22 W/m² | - |
| 1788023500 | 18.89° C | 57% | 853.2 hPa | 0 mm | - | 7 W/m² | - |
| 1788023126 | 19.44° C | 54% | 853.3 hPa | 0 mm | - | 15 W/m² | - |
| 1788022527 | 19.44° C | 54% | 853.2 hPa | 0 mm | - | 15 W/m² | - |
| 1788021700 | 19.44° C | 54% | 853.2 hPa | 0 mm | - | 51 W/m² | - |
| 1788021327 | 20° C | 52% | 853.2 hPa | 0 mm | - | 66 W/m² | - |
| 1788020726 | 20° C | 50% | 853.2 hPa | 0 mm | - | 37 W/m² | - |
| 1788019900 | 20° C | 52% | 853.2 hPa | 0 mm | - | 95 W/m² | - |
| 1788019527 | 20° C | 52% | 853.2 hPa | 0 mm | - | 169 W/m² | - |
* Rain latest hour (hover to see other rain measurements)
** Current wind speed in m/s (hover to see current wind gust speed)